When you browse on this site, cookies collect data to enhance your experience and personalize the content and advertising you see.
Visit our Privacy Policy to learn more. By continuing to use the site, you agree to this use of cookies and data.

Hourly Weather Mokshicy

Today, 7 July, Tuesday

Time Temperature Precipitation Wind Pressure Humidity
00:00 +19°C° 0.2 mm 2 mps 743 mmHg 97%
01:00 +19°C° 0.2 mm 2 mps 743 mmHg 97%
02:00 +19°C° 0.2 mm 2 mps 742 mmHg 97%
03:00 +19°C° 0 mm 2 mps 742 mmHg 97%
04:00 +19°C° 0 mm 2 mps 742 mmHg 96%
05:00 +20°C° 0 mm 2 mps 742 mmHg 96%
06:00 +21°C° 0.1 mm 2 mps 742 mmHg 91%
07:00 +23°C° 0.1 mm 2 mps 742 mmHg 86%
08:00 +25°C° 0.1 mm 2 mps 742 mmHg 81%
09:00 +25°C° 0.8 mm 2 mps 742 mmHg 82%
10:00 +25°C° 0.8 mm 2 mps 742 mmHg 84%
11:00 +25°C° 0.8 mm 2 mps 742 mmHg 86%
12:00 +25°C° 1.4 mm 2 mps 742 mmHg 86%
13:00 +25°C° 1.4 mm 2 mps 742 mmHg 85%
14:00 +26°C° 1.4 mm 2 mps 742 mmHg 85%
15:00 +25°C° 1.6 mm 2 mps 742 mmHg 87%
16:00 +24°C° 1.6 mm 2 mps 742 mmHg 89%
17:00 +23°C° 1.6 mm 2 mps 742 mmHg 90%
18:00 +21°C° 0.7 mm 2 mps 742 mmHg 92%
19:00 +19°C° 0.7 mm 2 mps 742 mmHg 95%
20:00 +18°C° 0.7 mm 2 mps 742 mmHg 97%
21:00 +17°C° 0 mm 2 mps 742 mmHg 97%
22:00 +17°C° 0 mm 2 mps 742 mmHg 98%
23:00 +16°C° 0 mm 1 mps 742 mmHg 98%

Tomorrow, 8 July, Wednesday

Time Temperature Precipitation Wind Pressure Humidity
00:00 +16°C° 0.2 mm 2 mps 741 mmHg 98%
01:00 +16°C° 0.2 mm 2 mps 741 mmHg 98%
02:00 +16°C° 0.2 mm 2 mps 741 mmHg 98%
03:00 +16°C° 0.5 mm 2 mps 740 mmHg 98%
04:00 +17°C° 0.5 mm 2 mps 740 mmHg 98%
05:00 +17°C° 0.5 mm 2 mps 739 mmHg 98%
06:00 +17°C° 0.2 mm 2 mps 739 mmHg 97%
07:00 +17°C° 0.2 mm 3 mps 739 mmHg 96%
08:00 +17°C° 0.2 mm 3 mps 739 mmHg 95%
09:00 +17°C° 0.2 mm 3 mps 740 mmHg 93%
10:00 +17°C° 0.2 mm 3 mps 740 mmHg 90%
11:00 +16°C° 0.2 mm 3 mps 741 mmHg 88%
12:00 +16°C° 1.7 mm 3 mps 741 mmHg 91%
13:00 +14°C° 1.7 mm 3 mps 742 mmHg 94%
14:00 +13°C° 1.7 mm 3 mps 742 mmHg 97%
15:00 +14°C° 0 mm 3 mps 743 mmHg 94%
16:00 +15°C° 0 mm 2 mps 743 mmHg 91%
17:00 +16°C° 0 mm 2 mps 744 mmHg 88%
18:00 +16°C° 0 mm 2 mps 744 mmHg 89%
19:00 +15°C° 0 mm 1 mps 744 mmHg 91%
20:00 +15°C° 0 mm 1 mps 744 mmHg 93%
21:00 +14°C° 0 mm 1 mps 744 mmHg 94%
22:00 +14°C° 0 mm 1 mps 744 mmHg 95%
23:00 +13°C° 0 mm 1 mps 744 mmHg 95%

Day after tomorrow, 9 July, Thursday

Time Temperature Precipitation Wind Pressure Humidity
00:00 +13°C° 0 mm 1 mps 745 mmHg 95%
01:00 +13°C° 0 mm 1 mps 745 mmHg 95%
02:00 +11°C° 0 mm 0 mps 745 mmHg 95%
03:00 +13°C° 0 mm 1 mps 745 mmHg 94%
04:00 +13°C° 0 mm 1 mps 745 mmHg 92%
05:00 +14°C° 0 mm 1 mps 745 mmHg 91%
06:00 +16°C° 0 mm 1 mps 745 mmHg 82%
07:00 +19°C° 0 mm 1 mps 745 mmHg 74%
08:00 +20°C° 0 mm 1 mps 745 mmHg 66%
09:00 +20°C° 0.4 mm 1 mps 745 mmHg 69%
10:00 +20°C° 0.4 mm 1 mps 745 mmHg 72%
11:00 +19°C° 0.4 mm 2 mps 745 mmHg 74%
12:00 +19°C° 0.3 mm 2 mps 745 mmHg 74%
13:00 +20°C° 0.3 mm 2 mps 745 mmHg 74%
14:00 +20°C° 0.3 mm 3 mps 745 mmHg 74%
15:00 +19°C° 0.3 mm 3 mps 745 mmHg 76%
16:00 +18°C° 0.3 mm 3 mps 745 mmHg 79%
17:00 +18°C° 0.3 mm 2 mps 745 mmHg 81%
18:00 +17°C° 0 mm 2 mps 745 mmHg 83%
19:00 +16°C° 0 mm 2 mps 745 mmHg 85%
20:00 +15°C° 0 mm 1 mps 746 mmHg 88%
21:00 +14°C° 0 mm 2 mps 746 mmHg 89%
22:00 +13°C° 0 mm 2 mps 746 mmHg 91%
23:00 +12°C° 0 mm 2 mps 747 mmHg 93%

10 July, Friday

Time Temperature Precipitation Wind Pressure Humidity
00:00 +10°C° 0 mm 2 mps 747 mmHg 94%
01:00 +10°C° 0 mm 2 mps 747 mmHg 95%
02:00 +9°C° 0 mm 2 mps 748 mmHg 96%
03:00 +10°C° 0 mm 2 mps 748 mmHg 94%
04:00 +12°C° 0 mm 2 mps 748 mmHg 93%
05:00 +12°C° 0 mm 2 mps 749 mmHg 92%
06:00 +13°C° 0 mm 3 mps 749 mmHg 83%
07:00 +16°C° 0 mm 3 mps 749 mmHg 74%
08:00 +17°C° 0 mm 3 mps 750 mmHg 65%
09:00 +18°C° 0 mm 3 mps 750 mmHg 59%
10:00 +19°C° 0 mm 3 mps 750 mmHg 53%
11:00 +20°C° 0 mm 4 mps 750 mmHg 48%
12:00 +21°C° 0 mm 4 mps 750 mmHg 44%
13:00 +22°C° 0 mm 3 mps 750 mmHg 41%
14:00 +22°C° 0 mm 3 mps 750 mmHg 38%
15:00 +22°C° 0 mm 3 mps 750 mmHg 42%
16:00 +22°C° 0 mm 3 mps 750 mmHg 45%
17:00 +21°C° 0 mm 2 mps 750 mmHg 49%
18:00 +20°C° 0 mm 2 mps 750 mmHg 57%
19:00 +19°C° 0 mm 1 mps 751 mmHg 66%
20:00 +16°C° 0 mm 1 mps 751 mmHg 74%
21:00 +15°C° 0 mm 1 mps 751 mmHg 76%
22:00 +14°C° 0 mm 1 mps 751 mmHg 79%
23:00 +13°C° 0 mm 1 mps 751 mmHg 82%

11 July, Saturday

Time Temperature Precipitation Wind Pressure Humidity
00:00 +13°C° 0 mm 1 mps 751 mmHg 84%
01:00 +12°C° 0 mm 2 mps 751 mmHg 86%
02:00 +12°C° 0 mm 2 mps 751 mmHg 88%
03:00 +13°C° 0 mm 2 mps 751 mmHg 87%
04:00 +14°C° 0 mm 2 mps 751 mmHg 85%
05:00 +14°C° 0 mm 2 mps 751 mmHg 84%
06:00 +16°C° 0 mm 3 mps 751 mmHg 77%
07:00 +18°C° 0 mm 4 mps 751 mmHg 70%
08:00 +20°C° 0 mm 4 mps 751 mmHg 64%
09:00 +21°C° 0 mm 5 mps 751 mmHg 60%
10:00 +22°C° 0 mm 5 mps 750 mmHg 56%
11:00 +25°C° 0 mm 5 mps 750 mmHg 52%
12:00 +25°C° 0 mm 5 mps 750 mmHg 54%
13:00 +25°C° 0 mm 5 mps 750 mmHg 56%
14:00 +25°C° 0 mm 4 mps 750 mmHg 57%
15:00 +25°C° 0 mm 4 mps 750 mmHg 61%
16:00 +23°C° 0 mm 4 mps 750 mmHg 64%
17:00 +23°C° 0 mm 4 mps 749 mmHg 67%
18:00 +22°C° 0.1 mm 3 mps 749 mmHg 74%
19:00 +21°C° 0.1 mm 3 mps 749 mmHg 80%
20:00 +20°C° 0.1 mm 2 mps 749 mmHg 86%
21:00 +19°C° 0.8 mm 2 mps 749 mmHg 89%
22:00 +19°C° 0.8 mm 2 mps 749 mmHg 93%
23:00 +18°C° 0.8 mm 2 mps 749 mmHg 96%

12 July, Sunday

Time Temperature Precipitation Wind Pressure Humidity
00:00 +18°C° 3.8 mm 2 mps 749 mmHg 97%
01:00 +18°C° 3.8 mm 2 mps 749 mmHg 97%
02:00 +17°C° 3.8 mm 2 mps 749 mmHg 98%
03:00 +16°C° 2.1 mm 2 mps 749 mmHg 98%
04:00 +16°C° 2.1 mm 1 mps 749 mmHg 98%
05:00 +15°C° 2.1 mm 1 mps 749 mmHg 97%
06:00 +15°C° 0.9 mm 1 mps 749 mmHg 97%
07:00 +15°C° 0.9 mm 1 mps 749 mmHg 97%
08:00 +15°C° 0.9 mm 1 mps 748 mmHg 96%
09:00 +15°C° 0.4 mm 1 mps 748 mmHg 96%
10:00 +15°C° 0.4 mm 1 mps 748 mmHg 96%
11:00 +16°C° 0.4 mm 1 mps 748 mmHg 96%
12:00 +15°C° 1.6 mm 1 mps 748 mmHg 96%
13:00 +15°C° 1.6 mm 1 mps 748 mmHg 97%
14:00 +14°C° 1.6 mm 1 mps 748 mmHg 98%
15:00 +14°C° 1.5 mm 1 mps 748 mmHg 98%
16:00 +14°C° 1.5 mm 1 mps 748 mmHg 98%
17:00 +13°C° 1.5 mm 1 mps 747 mmHg 98%
18:00 +13°C° 1 mm 1 mps 747 mmHg 98%
19:00 +13°C° 1 mm 1 mps 747 mmHg 98%
20:00 +12°C° 1 mm 0 mps 747 mmHg 98%
21:00 +13°C° 0.2 mm 1 mps 747 mmHg 98%
22:00 +12°C° 0.2 mm 1 mps 747 mmHg 98%
23:00 +12°C° 0.2 mm 1 mps 747 mmHg 98%
Show more